OE5HMR-13 Weather Reports


time (UTC)temp
F
wind
direction
speed
knots
gust
knots
rain 1hr
in
rain 24hr
in
rain mn
in
humidity
%
barometer
mb
20260504011612 48 0.0 0.0 0.00 0.00 0.00 56 1012.4
20260504010533 48 0.0 0.0 0.00 0.00 0.00 55 1012.4
20260504005537 48 0.0 0.0 0.00 0.00 0.00 55 1012.4
20260504004533 49 0.0 0.0 0.00 0.00 0.00 56 1012.4
20260504003553 49 0.0 0.0 0.00 0.00 0.00 55 1012.4
20260504002549 49 0.0 0.0 0.00 0.00 0.00 55 1012.4
20260504001541 50 0.0 0.0 0.00 0.00 0.00 54 1012.4
20260504000555 50 0.0 0.0 0.00 0.00 0.00 54 1012.4
20260503235537 50 0.0 0.0 0.00 0.00 0.00 53 1012.4
20260503234535 51 0.0 0.0 0.00 0.00 0.00 52 1012.4
20260503233550 51 0.0 0.0 0.00 0.00 0.00 52 1012.4
20260503232539 52 0.0 0.0 0.00 0.00 0.00 50 1012.4
20260503231531 53 0.0 0.0 0.00 0.00 0.00 50 1012.4
20260503230615 53 0.0 0.0 0.00 0.00 0.00 49 1012.4
20260503225552 53 0.0 0.0 0.00 0.00 0.00 49 1012.4
20260503224537 53 0.0 0.0 0.00 0.00 0.00 49 1012.4
20260503223530 54 0.0 0.0 0.00 0.00 0.00 48 1012.4
20260503222533 54 0.0 0.0 0.00 0.00 0.00 48 1012.4
20260503221535 54 0.0 0.0 0.00 0.00 0.00 47 1012.4
20260503220551 54 0.0 0.0 0.00 0.00 0.00 47 1012.4
20260503215533 54 0.0 0.0 0.00 0.00 0.00 47 1013.4
20260503214555 54 0.0 0.0 0.00 0.00 0.00 46 1013.3
20260503213536 54 0.0 0.0 0.00 0.00 0.00 45 1012.4
20260503212531 55 0.0 0.0 0.00 0.00 0.00 44 1012.4
20260503211536 55 0.0 0.0 0.00 0.00 0.00 43 1012.5
20260503210553 56 0.0 0.0 0.00 0.00 0.00 42 1013.4
20260503205539 56 0.0 0.0 0.00 0.00 0.00 41 1013.4
20260503204534 57 0.0 0.0 0.00 0.00 0.00 41 1013.4
20260503203540 58 0.0 0.0 0.00 0.00 0.00 40 1013.4
20260503202548 59 0.0 0.0 0.00 0.00 0.00 39 1013.4
20260503201530 59 0.0 0.0 0.00 0.00 0.00 38 1013.4
20260503200532 60 0.0 0.0 0.00 0.00 0.00 38 1013.4
20260503195532 60 0.0 0.0 0.00 0.00 0.00 38 1013.4
20260503194535 60 0.0 0.0 0.00 0.00 0.00 38 1013.4
20260503193543 60 0.0 0.0 0.00 0.00 0.00 38 1013.4
20260503192542 60 0.0 0.0 0.00 0.00 0.00 38 1013.4
20260503191538 60 0.0 0.0 0.00 0.00 0.00 38 1013.4
20260503190536 61 0.0 0.0 0.00 0.00 0.00 37 1013.4
20260503185535 61 0.0 0.0 0.00 0.00 0.00 36 1013.4
20260503184535 61 0.0 0.0 0.00 0.00 0.00 35 1013.4
20260503183558 62 0.0 0.0 0.00 0.00 0.00 34 1013.4
20260503182541 64 0.0 0.0 0.00 0.00 0.00 33 1013.4
20260503181531 65 0.0 0.0 0.00 0.00 0.00 31 1013.4
20260503180539 66 0.0 0.0 0.00 0.00 0.00 31 1013.4
20260503175534 67 0.0 0.0 0.00 0.00 0.00 30 1013.4
20260503174529 68 0.0 0.0 0.00 0.00 0.00 30 1013.4
20260503173537 69 0.0 0.0 0.00 0.00 0.00 29 1013.4
20260503172529 70 0.0 0.0 0.00 0.00 0.00 28 1013.4
20260503171535 71 0.0 0.0 0.00 0.00 0.00 28 1013.4
20260503170542 72 0.0 0.0 0.00 0.00 0.00 28 1013.4
20260503150555 77 0.0 0.0 0.00 0.00 0.00 16 1014.5
20260503130549 77 0.0 0.0 0.00 0.00 0.00 16 1015.6
20260503110548 76 0.0 0.0 0.00 0.00 0.00 26 1015.6
20260503081536 69 0.0 0.0 0.00 0.00 0.00 37 1016.7
20260503080533 69 0.0 0.0 0.00 0.00 0.00 36 1016.7
20260503072531 66 0.0 0.0 0.00 0.00 0.00 46 1015.6
20260503071540 64 0.0 0.0 0.00 0.00 0.00 48 1015.8
20260503070542 62 0.0 0.0 0.00 0.00 0.00 51 1016.7
20260503054541 46 0.0 0.0 0.00 0.00 0.00 61 1015.6
20260503053540 45 0.0 0.0 0.00 0.00 0.00 61 1015.6
20260503052606 44 0.0 0.0 0.00 0.00 0.00 61 1015.6
20260503051603 43 0.0 0.0 0.00 0.00 0.00 62 1015.8
20260503050555 42 0.0 0.0 0.00 0.00 0.00 62 1016.7
20260503045539 40 0.0 0.0 0.00 0.00 0.00 62 1016.7
20260503044533 39 0.0 0.0 0.00 0.00 0.00 61 1016.7
20260503043534 39 0.0 0.0 0.00 0.00 0.00 60 1016.7
20260503042554 38 0.0 0.0 0.00 0.00 0.00 60 1016.7
20260503041557 37 0.0 0.0 0.00 0.00 0.00 60 1016.7
20260503040548 37 0.0 0.0 0.00 0.00 0.00 61 1016.7
20260503035556 36 0.0 0.0 0.00 0.00 0.00 60 1016.7
20260503034548 37 0.0 0.0 0.00 0.00 0.00 59 1016.7
20260503033543 37 0.0 0.0 0.00 0.00 0.00 59 1016.7
20260503032533 37 0.0 0.0 0.00 0.00 0.00 59 1016.7
20260503031536 38 0.0 0.0 0.00 0.00 0.00 59 1016.7
20260503030632 38 0.0 0.0 0.00 0.00 0.00 59 1016.7
20260503025600 38 0.0 0.0 0.00 0.00 0.00 59 1016.7
20260503024558 38 0.0 0.0 0.00 0.00 0.00 60 1016.7
20260503023530 38 0.0 0.0 0.00 0.00 0.00 60 1016.7
20260503022534 38 0.0 0.0 0.00 0.00 0.00 59 1016.7
20260503021551 38 0.0 0.0 0.00 0.00 0.00 60 1016.7
20260503020541 39 0.0 0.0 0.00 0.00 0.00 60 1016.7
20260503015529 38 0.0 0.0 0.00 0.00 0.00 60 1016.7
20260503014538 38 0.0 0.0 0.00 0.00 0.00 60 1016.7
20260503013532 38 0.0 0.0 0.00 0.00 0.00 59 1016.7
20260503012540 38 0.0 0.0 0.00 0.00 0.00 59 1016.7